This demonstration page uses our WeatherBlox Daily Observations layout. Learn more.

Left ArrowRight Arrow

Hourly Observations for February 2, 2015

Temp ( °F °C ) Dew Point ( °F °C ) Humidity (%) Winds ( mph kmh ) Pressure ( in mb ) Visibility ( mi km ) Precip ( " mm )
12:53 am 00:53 Clear 48 8.9 44 6.7 86 86 NW 3 6 30.16 1021 10 16 0.00 0.00
1:53 am 01:53 Clear 46 7.8 43 6.1 89 89 Calm 30.16 1021 9 14 0.00 0.00
2:53 am 02:53 Mostly Cloudy with Mist and Fog 47 8.3 44 6.7 90 90 Calm 30.15 1021 6 10 0.00 0.00
3:53 am 03:53 Cloudy 48 8.9 45 7.2 89 89 Calm 30.15 1021 10 16 0.00 0.00
4:53 am 04:53 Cloudy with Light Rain 50 10 48 8.9 93 93 VRB 5 7 30.16 1022 9 14 0.05 1.27
5:53 am 05:53 Cloudy 50 10 49 9.4 96 96 Calm 30.14 1021 10 16 0.04 1.02
6:53 am 06:53 Cloudy with Rain 51 10.6 49 9.4 92 92 NNE 8 13 30.17 1022 5 8 0.04 1.02
7:53 am 07:53 Mostly Cloudy 51 10.6 50 10 96 96 SW 5 7 30.19 1022 10 16 0.16 4.06
8:53 am 08:53 Mostly Cloudy 51 10.6 50 10 96 96 W 5 7 30.17 1022 10 16 0.00 0.00
9:53 am 09:53 Cloudy with Light Rain 52 11.1 51 10.6 97 97 W 3 6 30.19 1022 4 6 0.03 0.76
9:55 am 09:55 Cloudy with Light Rain 54 12 52 11 94 94 W 3 6 30.18 1022 10 16 0.00 0.00
10:53 am 10:53 Partly Cloudy 57 13.9 53 11.7 87 87 Calm 30.18 1022 10 16 0.00 0.03
11:53 am 11:53 Cloudy 58 14.4 49 9.4 72 72 Calm 30.17 1022 10 16 0.00 0.00
12:53 pm 12:53 Cloudy 59 15 50 10 72 72 Calm 30.14 1021 10 16 0.00 0.00
1:53 pm 13:53 Cloudy 58 14.4 50 10 75 75 NNE 5 7 30.12 1020 10 16 0.01 0.25
2:53 pm 14:53 Cloudy 58 14.4 52 11.1 81 81 N 6 9 30.13 1020 10 16 0.00 0.00
3:53 pm 15:53 Cloudy with Light Rain 54 12.2 52 11.1 93 93 NE 9 15 30.15 1021 4 6 0.11 2.79
4:53 pm 16:53 Mostly Cloudy 54 12.2 51 10.6 90 90 NE 3 6 30.14 1021 10 16 0.00 0.03
5:53 pm 17:53 Clear 53 11.7 51 10.6 93 93 NW 3 6 30.15 1021 10 16 0.00 0.00
6:53 pm 18:53 Clear 52 11.1 51 10.6 97 97 Calm 30.14 1021 8 13 0.00 0.00
7:15 pm 19:15 Clear with Mist and Fog 52 11.1 51 10.6 97 97 Calm 30.15 1021 2 3 0.00 0.00
7:21 pm 19:21 Clear with Mist and Fog 51 10.6 50 10 96 96 WNW 3 6 30.15 1021 1 1 0.00 0.00
7:33 pm 19:33 Clear with Mist and Fog 51 10.6 50 10 96 96 Calm 30.15 1021 2 2 0.00 0.00
7:36 pm 19:36 Clear with Mist and Fog 51 10.6 50 10 96 96 Calm 30.15 1021 3 5 0.00 0.00
7:51 pm 19:51 Clear with Mist and Fog 50 10 48 9 94 94 NE 6 9 30.15 1021 2 3 0.00 0.00
7:52 pm 19:52 Clear with Mist and Fog 50 10 49 9.4 96 96 NE 6 9 30.14 1021 1 2 0.00 0.00
8:04 pm 20:04 Clear with Mist and Fog 50 10 50 10 100 100 NNW 5 7 30.15 1021 2 3 0.00 0.00
8:12 pm 20:12 Clear with Mist and Fog 52 11 50 10 94 94 NNW 6 9 30.12 1020 4 6 0.00 0.00
8:53 pm 20:53 Clear with Mist and Fog 51 10.6 50 10 96 96 NNW 3 6 30.14 1021 5 8 0.00 0.00
9:13 pm 21:13 Clear with Mist and Fog 49 9.4 48 8.9 97 97 N 3 6 30.15 1021 2 3 0.00 0.00
9:17 pm 21:17 Clear with Mist and Fog 49 9.4 48 8.9 97 97 N 3 6 30.15 1021 1 1 0.00 0.00
9:24 pm 21:24 Clear with Mist and Fog 48 9 48 9 100 100 Calm 30.15 1021 2 2 0.00 0.00
9:27 pm 21:27 Clear with Mist and Fog 49 9.4 49 9.4 100 100 NNW 3 6 30.15 1021 3 5 0.00 0.00
9:37 pm 21:37 Clear with Mist and Fog 49 9.4 49 9.4 100 100 N 3 6 30.15 1021 2 2 0.00 0.00
9:44 pm 21:44 Mostly Clear with Mist and Fog 48 9 48 9 100 100 N 3 6 30.15 1021 1 2 0.00 0.00
9:49 pm 21:49 Partly Cloudy with Mist and Fog 48 9 48 9 100 100 Calm 30.15 1021 2 3 0.00 0.00
9:53 pm 21:53 Mostly Cloudy with Mist and Fog 48 8.9 48 8.9 100 100 Calm 30.14 1021 2 3 0.00 0.00
10:22 pm 22:22 Mostly Clear with Fog 48 8.9 47 8.3 96 96 Calm 30.15 1021 1 1 0.00 0.00
10:53 pm 22:53 Clear with Fog 47 8.3 46 7.8 97 97 Calm 30.14 1021 1 1 0.00 0.00
11:26 pm 23:26 Clear with Mist and Fog 48 9 46 8 94 94 NNW 3 6 30.12 1020 2 3 0.00 0.00
11:35 pm 23:35 Clear with Mist and Fog 48 8.9 48 8.9 100 100 Calm 30.12 1020 1 1 0.00 0.00
11:53 pm 23:53 Clear with Mist and Fog 46 7.8 45 7.2 96 96 NW 3 6 30.13 1020 1 1 0.00 0.00
11:58 pm 23:58 Clear with Mist and Fog 46 8 46 8 100 100 NW 3 6 30.12 1020 2 2 0.00 0.00

Powered by AerisWeather